#timestamp,LO_Frequency,Hit 
1502380815.9,286047005.0,N
1502380835.7,286047004.6,N
1502380855.5,286047008.5,P
1502380875.4,286047000.9,N
1502380895.2,286046999.9,N
1502380915.0,286047000.6,N
1502380915.9,286047000.6,N
1502380935.8,286047000.9,N
1502380955.6,286046999.2,N
1502380975.4,286046999.0,N
1502380995.3,286046998.6,N
1502381015.1,286046996.0,N
1502381016.0,286046996.0,N
1502381035.8,286046994.6,N
1502381055.6,286046993.3,N
1502381075.5,286046994.1,N
1502381095.3,286046995.3,N
1502381115.1,286046997.7,N
1502381135.9,286046996.9,N
1502381155.7,286046999.6,N
1502381175.5,286046999.5,N
1502381195.4,286046998.0,N
1502381215.2,286046996.7,N
1502381235.0,286046996.9,N
1502381235.9,286046996.9,N
1502381255.8,286046999.5,N
1502381275.6,286046994.9,N
1502381295.4,286046995.8,N
1502381315.3,286046995.3,N
1502381335.1,286046997.6,N
1502381336.0,286046997.6,N
1502381355.8,286046995.9,N
1502381375.7,286046992.5,N
1502381395.5,286046994.5,N
1502381415.3,286046994.0,N
1502381435.2,286046994.1,N
1502381455.9,286046992.2,P
1502381475.7,286046996.1,N
1502381495.6,286046994.2,N
1502381515.4,286046997.9,N
1502381535.2,286046998.7,N
1502381555.1,286047001.0,N
1502381556.0,286047001.0,N
1502381575.8,286046998.2,N
1502381595.6,286047000.6,N
1502381615.5,286046998.8,N
1502381635.3,286046997.2,N
1502381655.1,286046996.2,N
1502381675.9,286046991.9,P
1502381695.7,286046994.1,N
1502381715.5,286046990.2,P
1502381735.4,286046990.4,P
1502381755.2,286046997.3,N
1502381775.0,286046995.4,N
1502381775.9,286046995.4,N
1502381795.8,286046993.0,P
1502381815.6,286046993.6,P
1502381835.4,286046994.1,P
1502381855.3,286046994.5,P
1502381875.1,286046998.4,P
1502381895.9,286046999.4,N
1502381915.7,286046999.6,N
1502381935.5,286046999.6,N
1502381955.3,286046998.7,N
1502381975.2,286046998.0,N
1502381995.0,286046993.9,N
1502381995.9,286046993.9,N
1502382015.7,286046997.7,N
1502382035.6,286046991.8,P
1502382055.4,286046995.1,N
1502382075.2,286046993.4,P
1502382095.1,286046994.2,N
1502382096.0,286046994.2,P
1502382115.8,286046998.9,P
1502382135.7,286046996.6,N
1502382155.5,286046997.4,N
1502382175.3,286046997.8,N
1502382195.1,286046995.9,N
1502382215.9,286046994.8,P
1502382235.7,286046997.2,P
1502382255.6,286046998.0,N
1502382275.4,286046997.4,N
1502382295.2,286046995.0,P
1502382315.1,286047000.8,N
1502382316.0,286047000.8,N
1502382335.8,286046996.9,N
1502382355.6,286046994.9,N
1502382375.5,286046993.4,N
1502382395.3,286046996.2,N
1502382415.1,286046997.2,N
1502382435.8,286046998.5,N
1502382455.7,286047000.5,N
1502382475.5,286047001.1,N
1502382495.3,286046998.6,N
1502382515.2,286047002.0,N
1502382535.9,286047003.8,N
1502382555.7,286047005.3,N
1502382575.6,286047004.0,N
1502382595.4,286047008.0,N
1502382615.2,286047008.4,N
1502382635.1,286047008.3,N
1502382636.0,286047008.3,N
1502382655.8,286047008.2,N
1502382675.6,286047011.7,N
1502382695.5,286047013.5,N
1502382715.3,286047015.0,N
1502382735.1,286047016.2,N
1502382755.8,286047017.4,N
1502382775.7,286047020.5,N
1502382795.5,286047023.0,P
1502382815.4,286047017.9,N
1502382835.2,286047015.9,N
1502382855.0,286047016.9,N
1502382855.9,286047016.9,N
1502382875.8,286047018.4,P
1502382895.6,286047001.9,N
1502382915.4,286047005.7,N
1502382935.3,286047005.7,N
1502382955.1,286047008.6,N
1502382956.0,286047008.6,N
1502382975.8,286047006.8,N
1502382995.7,286047008.2,N
1502383015.5,286047010.2,N
1502383035.3,286047008.3,N
1502383055.1,286047006.4,N
1502383075.9,286047003.2,N
1502383095.7,286047000.1,N
1502383115.5,286046996.7,N
1502383135.4,286046997.9,N
1502383155.2,286046996.1,N
1502383175.0,286046997.8,N
1502383175.9,286046997.8,N
1502383195.8,286046996.2,N
1502383215.6,286046995.1,N
1502383235.4,286046998.1,N
1502383255.3,286046998.6,N
1502383275.1,286046999.0,N
1502383276.0,286046999.0,N
1502383295.8,286046997.5,N
1502383315.7,286046997.0,N
1502383335.5,286046997.1,N
1502383355.3,286046996.6,N
1502383375.1,286046995.3,N
1502383395.9,286046995.5,N
1502383415.7,286046995.5,N
1502383435.5,286046999.1,N
1502383455.4,286046996.9,N
1502383475.2,286046997.5,N
1502383495.0,286046997.3,N
1502383495.9,286046997.3,N
1502383515.8,286046997.9,N
1502383535.6,286046997.4,N
1502383555.4,286046997.3,N
1502383575.3,286046996.6,N
1502383595.1,286046997.5,N
1502383596.0,286046997.5,N
1502383615.8,286046995.3,P
1502383635.7,286046998.2,N
1502383655.5,286046999.2,N
1502383675.3,286046996.6,N
1502383695.2,286046996.1,N
1502383715.9,286046996.6,N
1502383735.7,286046998.8,N
1502383755.6,286047002.6,N
1502383775.4,286047001.9,N
1502383795.2,286047000.5,N
1502383815.1,286047000.5,N
1502383816.0,286047000.5,N
1502383835.8,286046998.2,N
1502383855.6,286046999.0,N
1502383875.4,286046997.6,N
1502383895.3,286046997.7,N
1502383915.1,286046999.6,N
1502383935.8,286046998.8,N
1502383955.7,286046999.0,N
1502383975.5,286047000.3,N
1502383995.3,286047001.5,N
1502384015.2,286047002.3,N
1502384035.9,286047003.6,N
1502384055.7,286047002.2,N
1502384075.6,286046999.9,N
1502384095.4,286046999.7,N
1502384115.2,286047002.8,N
1502384135.0,286046996.6,N
1502384136.0,286046996.6,N
1502384155.8,286046997.6,N
1502384175.6,286046996.5,N
1502384195.4,286046998.6,N
1502384215.3,286047000.1,N
1502384235.1,286046999.7,N
1502384255.8,286046999.3,N
1502384275.7,286046998.5,N
1502384295.5,286047000.2,N
1502384315.3,286047000.5,N
1502384335.2,286047000.0,N
1502384355.9,286046999.6,N
1502384375.7,286047002.4,N
1502384395.6,286047001.0,N
